Springfield, OH

12:32 AM EDT on April 24, 2017 (GMT -0400)
Springfield-Beckley Municipal

Weather History for KSGH - December, 2012

Change the Weather History Date:

Monday, December 10, 2012

  Actual Average (KFFO) Record (KFFO)
Temperature  
Mean Temperature 40 °F -  
Max Temperature 53 °F 41 °F 55 °F (1996)
Min Temperature 28 °F 27 °F 15 °F (2011)
Degree Days  
Heating Degree Days 24    
Moisture  
Dew Point 37 °F    
Average Humidity 90    
Maximum Humidity 100    
Minimum Humidity 79    
Precipitation  
Precipitation 0.02 in - - ()
Sea Level Pressure  
Sea Level Pressure 29.74 in    
Wind  
Wind Speed 12 mph (WNW)    
Max Wind Speed 16 mph    
Max Gust Speed 21 mph    
Visibility 4 miles    
Events Rain    
Averages and records for this station are not official NWS values.
T = Trace of Precipitation, MM = Missing Value Source: NWS Daily Summary

Daily Weather History Graph

Daily Weather History Graph

Search for Another Location

Airport or City:

Trip Planner

Search our weather history database for the weather conditions in past years. The results will help you decide how hot, cold, wet, or windy it might be!

Date:

Astronomy

Dec. 10, 2012 Rise Set
Actual Time 7:46 AM EST 5:10 PM EST
Civil Twilight 7:15 AM EST 5:40 PM EST
Nautical Twilight 6:42 AM EST 6:14 PM EST
Astronomical Twilight 6:09 AM EST 6:47 PM EST
Moon 4:28 AM EST (12/10) 2:59 PM EST (12/10)
Length of Visible Light 10h 25m
Length of Day
9h 24m
Waning Crescent, 10% of the Moon is Illuminated
Dec 10
Waning Crescent
Dec 13
New
Dec 20
First Quarter
Dec 28
Full
Jan 4
Last Quarter

Hourly Weather History & Observations

Time (EST) Temp. Windchill Dew Point Humidity Pressure Visibility Wind Dir Wind Speed Gust Speed Precip Events Conditions
12:56 AM 52.9 °F - 50.9 °F 93% 29.69 in 7.0 mi SSW 11.5 mph - 0.02 in   Mostly Cloudy
1:18 AM 53.6 °F - 51.8 °F 94% 29.68 in 7.0 mi SSW 12.7 mph - N/A   Overcast
1:27 AM 53.6 °F - 51.8 °F 94% 29.67 in 5.0 mi SSW 12.7 mph - N/A   Overcast
1:56 AM 52.9 °F - 50.9 °F 93% 29.68 in 3.0 mi SSW 11.5 mph - N/A   Overcast
2:18 AM 53.6 °F - 51.8 °F 94% 29.68 in 2.5 mi SW 12.7 mph - N/A   Overcast
2:45 AM 53.6 °F - 51.8 °F 94% 29.68 in 1.5 mi WSW 10.4 mph - 0.00 in Rain Light Rain
2:56 AM 50.9 °F - 48.9 °F 93% 29.68 in 2.5 mi WNW 10.4 mph - 0.00 in Rain Light Rain
3:03 AM 50.0 °F - 48.2 °F 94% 29.68 in 4.0 mi WNW 12.7 mph - 0.00 in Rain Light Rain
3:12 AM 50.0 °F - 48.2 °F 94% 29.68 in 5.0 mi NW 11.5 mph - 0.00 in   Overcast
3:29 AM 48.2 °F - 46.4 °F 93% 29.69 in 2.0 mi WNW 12.7 mph - 0.00 in   Overcast
3:35 AM 48.2 °F - 46.4 °F 93% 29.68 in 1.8 mi WNW 11.5 mph - 0.00 in   Overcast
3:56 AM 47.8 °F - 46.9 °F 97% 29.69 in 1.8 mi WNW 12.7 mph 19.6 mph 0.00 in   Overcast
4:13 AM 46.4 °F 39.8 °F 44.6 °F 93% 29.69 in 1.2 mi NW 16.1 mph - 0.00 in Rain Light Rain
4:26 AM 46.4 °F 41.1 °F 44.6 °F 93% 29.69 in 1.8 mi WNW 11.5 mph - 0.00 in   Overcast
4:56 AM 45.9 °F 41.2 °F 45.0 °F 97% 29.70 in 2.0 mi West 9.2 mph - 0.00 in   Overcast
5:22 AM 46.4 °F 41.5 °F 44.6 °F 93% 29.69 in 3.0 mi WNW 10.4 mph - N/A   Overcast
5:56 AM 45.0 °F 39.3 °F 43.0 °F 93% 29.69 in 3.0 mi WNW 11.5 mph - N/A   Overcast
6:17 AM 44.6 °F 38.4 °F 42.8 °F 93% 29.69 in 1.8 mi WNW 12.7 mph - N/A   Overcast
6:20 AM 44.6 °F 38.1 °F 42.8 °F 93% 29.69 in 1.2 mi WNW 13.8 mph - N/A   Overcast
6:27 AM 42.8 °F 36.2 °F 42.8 °F 100% 29.70 in 1.0 mi WNW 12.7 mph - N/A   Overcast
6:32 AM 42.8 °F 36.2 °F 41.0 °F 93% 29.70 in 1.5 mi WNW 12.7 mph - N/A   Overcast
6:39 AM 42.8 °F 37.0 °F 39.2 °F 87% 29.70 in 3.0 mi WNW 10.4 mph - N/A   Overcast
6:56 AM 41.9 °F 35.0 °F 39.9 °F 93% 29.70 in 4.0 mi WNW 12.7 mph - N/A   Overcast
7:11 AM 41.0 °F 34.3 °F 39.2 °F 93% 29.70 in 5.0 mi WNW 11.5 mph - N/A   Overcast
7:56 AM 39.9 °F 32.9 °F 37.9 °F 93% 29.72 in 4.0 mi WNW 11.5 mph - N/A   Overcast
8:05 AM 39.2 °F 31.2 °F 37.4 °F 93% 29.71 in 4.0 mi WNW 13.8 mph - N/A   Overcast
8:56 AM 36.9 °F 27.8 °F 34.0 °F 89% 29.73 in 4.0 mi NW 15.0 mph - N/A   Overcast
9:11 AM 37.4 °F 29.8 °F 33.8 °F 87% 29.72 in 4.0 mi NW 11.5 mph - N/A   Overcast
9:56 AM 36.9 °F 28.2 °F 32.9 °F 86% 29.73 in 4.0 mi NW 13.8 mph - N/A   Overcast
10:46 AM 37.4 °F 30.3 °F 32.0 °F 81% 29.72 in 5.0 mi NW 10.4 mph - N/A   Haze
10:56 AM 36.9 °F 29.1 °F 32.0 °F 83% 29.73 in 5.0 mi WNW 11.5 mph - N/A   Haze
11:56 AM 37.9 °F 29.6 °F 32.0 °F 79% 29.73 in 5.0 mi WNW 13.8 mph - N/A   Haze
12:56 PM 36.9 °F 28.2 °F 31.1 °F 80% 29.74 in 5.0 mi WNW 13.8 mph 20.7 mph 0.00 in   Overcast
1:06 PM 35.6 °F 27.1 °F 30.2 °F 81% 29.73 in 4.0 mi WNW 12.7 mph - 0.00 in   Overcast
1:56 PM 32.9 °F 22.4 °F 29.1 °F 86% 29.73 in 4.0 mi WNW 16.1 mph - 0.00 in   Overcast
2:29 PM 32.0 °F 22.5 °F 28.4 °F 87% 29.72 in 5.0 mi NW 12.7 mph - N/A   Overcast
2:56 PM 32.0 °F 22.5 °F 27.1 °F 82% 29.76 in 4.0 mi WNW 12.7 mph - N/A   Haze
3:56 PM 31.1 °F 21.4 °F 27.1 °F 85% 29.78 in 4.0 mi WNW 12.7 mph - 0.00 in   Overcast
4:56 PM 30.0 °F 20.5 °F 26.1 °F 85% 29.80 in 4.0 mi WNW 11.5 mph - 0.00 in   Overcast
5:56 PM 30.0 °F 22.4 °F 26.1 °F 85% 29.81 in 5.0 mi West 8.1 mph - 0.00 in   Overcast
6:38 PM 30.2 °F 21.3 °F 26.6 °F 86% 29.80 in 6.0 mi WNW 10.4 mph - 0.00 in   Overcast
6:56 PM 30.0 °F 21.7 °F 26.1 °F 85% 29.83 in 5.0 mi WNW 9.2 mph - 0.00 in   Overcast
7:56 PM 30.0 °F 20.0 °F 26.1 °F 85% 29.86 in 5.0 mi WNW 12.7 mph - N/A   Overcast
8:07 PM 30.2 °F 20.8 °F 26.6 °F 86% 29.84 in 5.0 mi WNW 11.5 mph - N/A   Overcast
8:40 PM 30.2 °F 21.9 °F 26.6 °F 86% 29.85 in 5.0 mi WNW 9.2 mph - N/A   Overcast
8:56 PM 30.0 °F 21.7 °F 27.1 °F 89% 29.88 in 5.0 mi WNW 9.2 mph - N/A   Overcast
9:15 PM 30.2 °F 21.3 °F 26.6 °F 86% 29.86 in 3.0 mi West 10.4 mph - N/A   Overcast
9:56 PM 30.0 °F 22.4 °F 27.1 °F 89% 29.91 in 3.0 mi West 8.1 mph - N/A   Overcast
10:56 PM 29.1 °F 20.0 °F 27.1 °F 92% 29.93 in 2.5 mi West 10.4 mph - N/A   Overcast
11:06 PM 28.4 °F 18.0 °F 26.6 °F 93% 29.90 in 2.0 mi West 12.7 mph - N/A   Overcast
11:56 PM 29.1 °F 19.4 °F 27.1 °F 92% 29.95 in 2.0 mi West 11.5 mph - N/A   Overcast